DELTA 1 DEB, 26822

Orbit data source: Space-Track

DELTA 1 DEB, 26822 is space debris in SSO originally from a launch on Thu, 12 Jun 1975 UTC launched from the Air Force Western Test Range (AFWTR). Debris objects in space refer to the collection of defunct objects orbiting the Earth. Examples of debris include non-operational satellites, rocket bodies, and fragments generated from explosions, collisions, or faulty payload assembly.

Loading next visibility...
Identifier
26822, 1975-052KC
Orbit
SSO
Country
Flag of USUS
Related business
Manufacturer
Unknown
Mission
Spacecraft
Bus & Motor
Unknown
Mass
Unknown
Launch date (UTC)
1975-06-12 (50 years ago)
Launch vehicle
Unknown
Launch site
Air Force Western Test Range (AFWTR)
Object type
Payload
Rocket body
Debris
Shape & HBR
Unknown shape, 0.1 m
Radar Cross Section
Small (<0.1 m²)

Expand to show TLE details & history
Last TLE update: 1 day ago

TLE from 1 day ago
0 DELTA 1 DEB
1 26822U 75052KC  25287.62338459 -.00000039  00000-0 -48569-5 0  9994
2 26822  99.6990  53.2672 0310538 332.7164  38.5615 12.83841780598052
Epoch: 2025-10-14T14:57Z
TLE epoch observation values (Epoch: 2025-10-14T14:57:40.428Z)
Latitude
13.33568°
Longitude
163.12952°
Altitude
1,143.912 km
Speed
7.368 km/s
True Right ascension
03h 23m 49s
True Declination
13° 15' 46"
Sunlit
Object was in full shadow at epoch
Visualization orbit readout
Latitude
Unknown
Longitude
Unknown
Altitude
Unknown
Speed
Unknown
Apparent Right ascension
Unknown
Apparent Declination
Unknown
Sunlit
N/A
Visualization observer readout
Local Sidereal Time
11:50:14
Azimuth
Unknown
Elevation
Unknown
Doppler factor
Unknown
Orbital elements
Apogee altitude
1,562.612 km
Perigee altitude
1,084.285 km
Semi-major axis
7,701.586 km
Eccentricity
0.03105
Inclination
99.699°
RAAN
53.2672°
Arg. of periapsis
332.7164°
True anomaly
40.84844°
Mean anomaly
38.5615°
Eccentric anomaly
39.69798°
Mean motion
3.21124 °/min
Orbital period
112.11 mins
BSTAR
-0.0000048569
Loading maneuver chart data...
Computing Atmospheric mass density...
Loading historical data...
Loading historical data...
Loading historical data...
Loading historical data...
Loading historical data...
Loading historical data...
Loading historical data...

Documentation

Showing up to 5 results
|